When you browse on this site, cookies collect data to enhance your experience and personalize the content and advertising you see.
Visit our Privacy Policy to learn more. By continuing to use the site, you agree to this use of cookies and data.
  • In Sweden
  • List of Countries
  • For 7 days
  • Water Temperature
  • Satellite Maps
  • Weather Map
  • Weather Widgets
  • user-avatar
    Login

    Hourly Weather Onykijeve

    Today, 20 June, Thursday

    Time Temperature Precipitation Wind Pressure Humidity
    00:00 +20°C° 0 mm 2 mps 740 mmHg 90%
    01:00 +19°C° 0 mm 2 mps 740 mmHg 91%
    02:00 +19°C° 0 mm 2 mps 740 mmHg 92%
    03:00 +19°C° 0 mm 2 mps 740 mmHg 92%
    04:00 +19°C° 0 mm 2 mps 740 mmHg 92%
    05:00 +19°C° 0 mm 3 mps 740 mmHg 93%
    06:00 +21°C° 0 mm 3 mps 740 mmHg 87%
    07:00 +24°C° 0 mm 3 mps 740 mmHg 81%
    08:00 +25°C° 0 mm 3 mps 740 mmHg 76%
    09:00 +27°C° 0.1 mm 3 mps 740 mmHg 70%
    10:00 +28°C° 0.1 mm 3 mps 740 mmHg 65%
    11:00 +29°C° 0.1 mm 3 mps 740 mmHg 59%
    12:00 +29°C° 0.7 mm 3 mps 740 mmHg 59%
    13:00 +29°C° 0.7 mm 3 mps 740 mmHg 59%
    14:00 +29°C° 0.7 mm 3 mps 740 mmHg 59%
    15:00 +29°C° 0.5 mm 3 mps 740 mmHg 60%
    16:00 +29°C° 0.5 mm 3 mps 740 mmHg 62%
    17:00 +28°C° 0.5 mm 3 mps 739 mmHg 64%
    18:00 +27°C° 0.1 mm 3 mps 740 mmHg 69%
    19:00 +25°C° 0.1 mm 3 mps 740 mmHg 73%
    20:00 +24°C° 0.1 mm 3 mps 740 mmHg 78%
    21:00 +22°C° 0 mm 3 mps 740 mmHg 79%
    22:00 +22°C° 0 mm 3 mps 740 mmHg 80%
    23:00 +21°C° 0 mm 3 mps 740 mmHg 80%

    Tomorrow, 21 June, Friday

    Time Temperature Precipitation Wind Pressure Humidity
    00:00 +20°C° 0 mm 3 mps 740 mmHg 81%
    01:00 +20°C° 0 mm 3 mps 740 mmHg 81%
    02:00 +20°C° 0 mm 3 mps 741 mmHg 81%
    03:00 +20°C° 0 mm 3 mps 741 mmHg 80%
    04:00 +20°C° 0 mm 3 mps 741 mmHg 80%
    05:00 +19°C° 0 mm 3 mps 741 mmHg 80%
    06:00 +21°C° 0 mm 3 mps 741 mmHg 76%
    07:00 +24°C° 0 mm 3 mps 741 mmHg 72%
    08:00 +26°C° 0 mm 3 mps 742 mmHg 68%
    09:00 +27°C° 0 mm 3 mps 742 mmHg 62%
    10:00 +28°C° 0 mm 3 mps 742 mmHg 56%
    11:00 +30°C° 0 mm 3 mps 742 mmHg 50%
    12:00 +30°C° 0 mm 3 mps 742 mmHg 50%
    13:00 +30°C° 0 mm 3 mps 742 mmHg 50%
    14:00 +30°C° 0 mm 3 mps 741 mmHg 50%
    15:00 +30°C° 0 mm 3 mps 741 mmHg 50%
    16:00 +30°C° 0 mm 3 mps 741 mmHg 50%
    17:00 +30°C° 0 mm 3 mps 741 mmHg 50%
    18:00 +28°C° 0 mm 2 mps 741 mmHg 53%
    19:00 +26°C° 0 mm 2 mps 741 mmHg 56%
    20:00 +24°C° 0 mm 2 mps 741 mmHg 60%
    21:00 +24°C° 0 mm 3 mps 741 mmHg 61%
    22:00 +22°C° 0 mm 3 mps 741 mmHg 63%
    23:00 +22°C° 0 mm 3 mps 741 mmHg 65%

    Day after tomorrow, 22 June, Saturday

    Time Temperature Precipitation Wind Pressure Humidity
    00:00 +21°C° 0 mm 3 mps 741 mmHg 65%
    01:00 +21°C° 0 mm 3 mps 741 mmHg 66%
    02:00 +21°C° 0 mm 3 mps 741 mmHg 66%
    03:00 +20°C° 0 mm 2 mps 741 mmHg 68%
    04:00 +20°C° 0 mm 2 mps 741 mmHg 70%
    05:00 +20°C° 0 mm 2 mps 741 mmHg 71%
    06:00 +23°C° 0 mm 2 mps 742 mmHg 68%
    07:00 +25°C° 0 mm 2 mps 742 mmHg 65%
    08:00 +27°C° 0 mm 3 mps 742 mmHg 62%
    09:00 +29°C° 0 mm 3 mps 742 mmHg 56%
    10:00 +30°C° 0 mm 3 mps 742 mmHg 50%
    11:00 +31°C° 0 mm 3 mps 742 mmHg 44%
    12:00 +31°C° 0 mm 2 mps 742 mmHg 44%
    13:00 +31°C° 0 mm 2 mps 742 mmHg 45%
    14:00 +31°C° 0 mm 2 mps 742 mmHg 46%
    15:00 +30°C° 0 mm 2 mps 742 mmHg 49%
    16:00 +29°C° 0 mm 2 mps 742 mmHg 53%
    17:00 +29°C° 0 mm 3 mps 741 mmHg 57%
    18:00 +27°C° 0 mm 2 mps 741 mmHg 58%
    19:00 +26°C° 0 mm 2 mps 742 mmHg 59%
    20:00 +25°C° 0 mm 2 mps 742 mmHg 60%
    21:00 +25°C° 0 mm 2 mps 742 mmHg 60%
    22:00 +24°C° 0 mm 2 mps 742 mmHg 59%
    23:00 +24°C° 0 mm 2 mps 742 mmHg 59%

    23 June, Sunday

    Time Temperature Precipitation Wind Pressure Humidity
    00:00 +24°C° 0 mm 2 mps 742 mmHg 59%
    01:00 +24°C° 0 mm 2 mps 742 mmHg 59%
    02:00 +23°C° 0 mm 2 mps 742 mmHg 59%
    03:00 +23°C° 0 mm 2 mps 742 mmHg 63%
    04:00 +21°C° 0 mm 2 mps 742 mmHg 67%
    05:00 +21°C° 0 mm 2 mps 742 mmHg 70%
    06:00 +23°C° 0 mm 2 mps 742 mmHg 66%
    07:00 +25°C° 0 mm 2 mps 742 mmHg 62%
    08:00 +27°C° 0 mm 2 mps 742 mmHg 58%
    09:00 +28°C° 0 mm 3 mps 742 mmHg 54%
    10:00 +29°C° 0 mm 3 mps 742 mmHg 50%
    11:00 +30°C° 0 mm 3 mps 742 mmHg 45%
    12:00 +32°C° 0 mm 4 mps 742 mmHg 45%
    13:00 +32°C° 0 mm 4 mps 742 mmHg 45%
    14:00 +32°C° 0 mm 4 mps 742 mmHg 45%
    15:00 +32°C° 0 mm 4 mps 741 mmHg 48%
    16:00 +30°C° 0 mm 4 mps 741 mmHg 51%
    17:00 +30°C° 0 mm 4 mps 741 mmHg 54%
    18:00 +28°C° 0.1 mm 4 mps 741 mmHg 59%
    19:00 +26°C° 0.1 mm 4 mps 741 mmHg 64%
    20:00 +23°C° 0.1 mm 4 mps 741 mmHg 68%
    21:00 +23°C° 0.1 mm 4 mps 741 mmHg 70%
    22:00 +22°C° 0.1 mm 4 mps 741 mmHg 71%
    23:00 +22°C° 0.1 mm 4 mps 741 mmHg 72%

    24 June, Monday

    Time Temperature Precipitation Wind Pressure Humidity
    00:00 +22°C° 0.3 mm 4 mps 741 mmHg 75%
    01:00 +21°C° 0.3 mm 4 mps 741 mmHg 78%
    02:00 +21°C° 0.3 mm 3 mps 741 mmHg 81%
    03:00 +21°C° 0 mm 3 mps 741 mmHg 83%
    04:00 +21°C° 0 mm 3 mps 741 mmHg 85%
    05:00 +21°C° 0 mm 3 mps 741 mmHg 87%
    06:00 +22°C° 0 mm 4 mps 741 mmHg 80%
    07:00 +25°C° 0 mm 4 mps 742 mmHg 73%
    08:00 +26°C° 0 mm 4 mps 742 mmHg 67%
    09:00 +27°C° 0 mm 5 mps 742 mmHg 62%
    10:00 +28°C° 0 mm 5 mps 742 mmHg 58%
    11:00 +29°C° 0 mm 6 mps 743 mmHg 53%
    12:00 +29°C° 0 mm 6 mps 743 mmHg 52%
    13:00 +29°C° 0 mm 6 mps 743 mmHg 50%
    14:00 +30°C° 0 mm 6 mps 743 mmHg 48%
    15:00 +28°C° 0 mm 6 mps 742 mmHg 52%
    16:00 +27°C° 0 mm 5 mps 742 mmHg 57%
    17:00 +26°C° 0 mm 4 mps 742 mmHg 61%
    18:00 +25°C° 0 mm 4 mps 742 mmHg 63%
    19:00 +25°C° 0 mm 4 mps 742 mmHg 65%
    20:00 +23°C° 0 mm 4 mps 742 mmHg 67%
    21:00 +24°C° 0.2 mm 3 mps 742 mmHg 68%
    22:00 +22°C° 0.2 mm 3 mps 743 mmHg 69%
    23:00 +22°C° 0.2 mm 3 mps 743 mmHg 70%

    25 June, Tuesday

    Time Temperature Precipitation Wind Pressure Humidity
    00:00 +21°C° 1.1 mm 2 mps 743 mmHg 75%
    01:00 +21°C° 1.1 mm 2 mps 743 mmHg 80%
    02:00 +21°C° 1.1 mm 1 mps 743 mmHg 86%
    03:00 +21°C° 0.6 mm 1 mps 743 mmHg 87%
    04:00 +20°C° 0.6 mm 2 mps 743 mmHg 88%
    05:00 +20°C° 0.6 mm 2 mps 743 mmHg 89%
    06:00 +22°C° 0 mm 3 mps 743 mmHg 85%
    07:00 +24°C° 0 mm 3 mps 743 mmHg 81%
    08:00 +26°C° 0 mm 4 mps 743 mmHg 77%
    09:00 +27°C° 0 mm 4 mps 743 mmHg 71%
    10:00 +29°C° 0 mm 4 mps 743 mmHg 64%
    11:00 +30°C° 0 mm 4 mps 743 mmHg 58%
    12:00 +30°C° 0 mm 4 mps 743 mmHg 55%
    13:00 +31°C° 0 mm 3 mps 743 mmHg 53%
    14:00 +31°C° 0 mm 3 mps 743 mmHg 51%
    15:00 +30°C° 0.1 mm 3 mps 743 mmHg 55%
    16:00 +30°C° 0.1 mm 4 mps 743 mmHg 60%
    17:00 +29°C° 0.1 mm 4 mps 742 mmHg 65%
    18:00 +27°C° 0 mm 4 mps 743 mmHg 70%
    19:00 +26°C° 0 mm 3 mps 743 mmHg 75%
    20:00 +24°C° 0 mm 2 mps 743 mmHg 81%
    21:00 +24°C° 0 mm 3 mps 743 mmHg 83%
    22:00 +22°C° 0 mm 3 mps 743 mmHg 86%
    23:00 +21°C° 0 mm 3 mps 743 mmHg 89%
    Show more